User: anonymous
Location: Nantong Television Tower
(32.0188°N, 120.8512°E)
Time: 08:15:20
(UTC+08:00)
Language:

ATLAS 3B CENTAUR R/B - Orbit

View from above orbital plane
View from above orbital plane
View from above satellite
View from above satellite

Ground track
Ground track

The orbit data is extracted from the following two-line orbital elements,

1 28118U 03057B   14204.03309439  .00035673  00000-0  80934-3 0  6591
2 28118 028.1681 050.8747 3869079 224.9472 333.5232 07.76205432198387
Epoch (UTC): 23 July 2014 00:47:39
Eccentricity: 0.3869079
inclination: 28.1681°
perigee height: 228 km
apogee height: 8566 km
right ascension of ascending node: 50.8747°
argument of perigee: 224.9472°
revolutions per day: 7.76205432
mean anomaly at epoch: 333.5232°
orbit number at epoch: 19838

The dashed part of the orbit path shows where the satellite is in the earth's shadow,  

DLR